Amsterdam, Netherlands

11:06 PM CEST on July 24, 2017 (GMT +0200)
Schiphol

Weather History for EHAM - June, 2013

Change the Weather History Date:

Sunday, June 23, 2013

  Actual Average Record
Temperature  
Mean Temperature 60 °F -  
Max Temperature 66 °F 68 °F 86 °F (2005)
Min Temperature 54 °F 53 °F 46 °F (1999)
Degree Days  
Heating Degree Days 5    
Growing Degree Days 10 (Base 50)    
Moisture  
Dew Point 53 °F    
Average Humidity 78    
Maximum Humidity 95    
Minimum Humidity 55    
Precipitation  
Precipitation 0.02 in - - ()
Sea Level Pressure  
Sea Level Pressure 29.76 in    
Wind  
Wind Speed 18 mph ()    
Max Wind Speed 27 mph    
Max Gust Speed 34 mph    
Visibility 6.6 miles    
Events Rain    
Averages and records for this station are not official NWS values.
T = Trace of Precipitation, MM = Missing Value Source: Averaged Metar Reports

Daily Weather History Graph

Daily Weather History Graph

Search for Another Location

Airport or City:

Trip Planner

Search our weather history database for the weather conditions in past years. The results will help you decide how hot, cold, wet, or windy it might be!

Date:

Astronomy

Jun. 23, 2013 Rise Set
Actual Time 5:19 AM CEST 10:06 PM CEST
Civil Twilight 4:29 AM CEST 10:56 PM CEST
Nautical Twilight 3:08 AM CEST 12:17 AM CEST
Astronomical Twilight Sun does not set Sun does not set
Moon 9:52 PM CEST (6/23) 5:28 AM CEST (6/23)
Length of Visible Light 18h 26m
Length of Day
16h 47m
Full, 100% of the Moon is Illuminated
Jun 23
Full
Jun 23
Full
Jun 30
Last Quarter
Jul 8
New
Jul 16
First Quarter

Hourly Weather History & Observations

Time (CEST) Temp. Dew Point Humidity Pressure Visibility Wind Dir Wind Speed Gust Speed Precip Events Conditions
12:25 AM 57.2 °F 50.0 °F 77% 29.74 in 6.2 mi SSW 18.4 mph - N/A   Scattered Clouds
12:55 AM 57.2 °F 50.0 °F 77% 29.74 in 6.2 mi SW 17.3 mph - N/A   Scattered Clouds
1:25 AM 57.2 °F 50.0 °F 77% 29.74 in 6.2 mi SW 23.0 mph - N/A   Partly Cloudy
1:55 AM 57.2 °F 50.0 °F 77% 29.74 in 6.2 mi SSW 19.6 mph - N/A   Scattered Clouds
2:00 AM 57 °F 50 °F 72% 29.74 in 12 mi SSW 20.1 mph - -   Partly Cloudy
2:25 AM 57.2 °F 50.0 °F 77% 29.71 in 6.2 mi SW 19.6 mph - N/A   Scattered Clouds
2:55 AM 57.2 °F 50.0 °F 77% 29.71 in 6.2 mi SW 20.7 mph - N/A   Scattered Clouds
3:25 AM 57.2 °F 51.8 °F 82% 29.71 in 6.2 mi SW 17.3 mph - N/A   Mostly Cloudy
3:55 AM 55.4 °F 51.8 °F 88% 29.71 in 6.2 mi SSW 18.4 mph - N/A Rain Light Rain Showers
4:25 AM 55.4 °F 53.6 °F 94% 29.71 in 5.6 mi SSW 16.1 mph - N/A Rain Light Rain Showers
4:55 AM 55.4 °F 53.6 °F 94% 29.71 in 3.7 mi South 13.8 mph - N/A Rain Rain Showers
5:00 AM 55 °F 53 °F 91% 29.71 in 4 mi South 13.4 mph - - Rain Heavy Rain
5:25 AM 55.4 °F 53.6 °F 94% 29.71 in 4.3 mi SSW 15.0 mph - N/A Rain Light Rain Showers
5:55 AM 55.4 °F 53.6 °F 94% 29.71 in 5.0 mi SSW 16.1 mph - N/A Rain Light Rain Showers
6:25 AM 55.4 °F 53.6 °F 94% 29.68 in 5.0 mi SSW 15.0 mph - N/A Rain Light Rain Showers
6:55 AM 55.4 °F 53.6 °F 94% 29.68 in 5.6 mi SSW 15.0 mph - N/A Rain Light Rain Showers
7:25 AM 55.4 °F 53.6 °F 94% 29.68 in 5.0 mi SSW 13.8 mph - N/A Rain Light Rain Showers
7:55 AM 55.4 °F 53.6 °F 94% 29.71 in 5.0 mi SSW 16.1 mph - N/A Rain Light Rain Showers
8:00 AM 55 °F 54 °F 95% 29.72 in 4 mi SW 17.9 mph - - Rain Heavy Drizzle
8:25 AM 57.2 °F 53.6 °F 88% 29.71 in 5.6 mi SW 16.1 mph - N/A Rain Rain Showers
8:55 AM 57.2 °F 53.6 °F 88% 29.71 in 6.2 mi SW 17.3 mph - N/A Rain Light Rain Showers
9:25 AM 59.0 °F 55.4 °F 88% 29.71 in 6.2 mi SW 19.6 mph 32.2 mph N/A   Mostly Cloudy
9:55 AM 59.0 °F 53.6 °F 82% 29.71 in 6.2 mi WSW 20.7 mph - N/A   Mostly Cloudy
10:25 AM 59.0 °F 53.6 °F 82% 29.71 in 6.2 mi SW 23.0 mph - N/A   Mostly Cloudy
10:55 AM 60.8 °F 55.4 °F 82% 29.74 in 6.2 mi WSW 21.9 mph - N/A   Scattered Clouds
11:00 AM 60 °F 54 °F 75% 29.75 in 10 mi SW 22.4 mph - -   Partly Cloudy
11:25 AM 60.8 °F 53.6 °F 77% 29.74 in 6.2 mi SW 23.0 mph - N/A   Scattered Clouds
11:55 AM 60.8 °F 53.6 °F 77% 29.74 in 6.2 mi WSW 24.2 mph - N/A   Scattered Clouds
12:25 PM 60.8 °F 53.6 °F 77% 29.74 in 6.2 mi WSW 21.9 mph 33.4 mph N/A   Scattered Clouds
12:55 PM 62.6 °F 53.6 °F 72% 29.74 in 6.2 mi WSW 23.0 mph - N/A   Scattered Clouds
1:25 PM 62.6 °F 53.6 °F 72% 29.77 in 6.2 mi WSW 23.0 mph - N/A   Scattered Clouds
1:55 PM 64.4 °F 53.6 °F 68% 29.77 in 6.2 mi WSW 25.3 mph - N/A   Scattered Clouds
2:00 PM 63 °F 52 °F 58% 29.78 in 16 mi WSW 24.6 mph - -   Partly Cloudy
2:25 PM 64.4 °F 53.6 °F 68% 29.77 in 6.2 mi WSW 25.3 mph - N/A   Scattered Clouds
2:55 PM 64.4 °F 51.8 °F 64% 29.77 in 6.2 mi WSW 23.0 mph - N/A   Scattered Clouds
3:25 PM 62.6 °F 51.8 °F 68% 29.77 in 6.2 mi WSW 25.3 mph - N/A   Partly Cloudy
3:55 PM 66.2 °F 53.6 °F 64% 29.80 in 6.2 mi SW 26.5 mph - N/A   Partly Cloudy
4:25 PM 64.4 °F 51.8 °F 64% 29.80 in 6.2 mi WSW 25.3 mph - N/A   Partly Cloudy
4:55 PM 64.4 °F 51.8 °F 64% 29.80 in 6.2 mi WSW 23.0 mph - N/A   Partly Cloudy
5:00 PM 65 °F 53 °F 55% 29.81 in 14 mi WSW 26.8 mph - -   Overcast
5:25 PM 64.4 °F 51.8 °F 64% 29.80 in 6.2 mi WSW 24.2 mph - N/A   Partly Cloudy
5:55 PM 66.2 °F 53.6 °F 64% 29.80 in 6.2 mi WSW 23.0 mph - N/A   Partly Cloudy
6:25 PM 64.4 °F 51.8 °F 64% 29.80 in 6.2 mi WSW 20.7 mph - N/A   Partly Cloudy
6:55 PM 60.8 °F 51.8 °F 72% 29.80 in 6.2 mi WSW 23.0 mph - N/A   Partly Cloudy
7:25 PM 62.6 °F 51.8 °F 68% 29.80 in 6.2 mi WSW 23.0 mph 34.5 mph N/A   Partly Cloudy
7:55 PM 60.8 °F 51.8 °F 72% 29.80 in 6.2 mi WSW 23.0 mph - N/A   Partly Cloudy
8:00 PM 61 °F 52 °F 64% 29.83 in 16 mi WSW 20.1 mph - -   Partly Cloudy
8:25 PM 60.8 °F 51.8 °F 72% 29.83 in 6.2 mi WSW 19.6 mph - N/A   Partly Cloudy
8:55 PM 59.0 °F 51.8 °F 77% 29.83 in 6.2 mi WSW 23.0 mph - N/A Rain Light Rain Showers
9:25 PM 59.0 °F 53.6 °F 82% 29.83 in 6.2 mi SW 18.4 mph - N/A Rain Light Rain Showers
9:55 PM 59.0 °F 53.6 °F 82% 29.83 in 6.2 mi WSW 17.3 mph - N/A   Scattered Clouds
10:25 PM 59.0 °F 53.6 °F 82% 29.86 in 6.2 mi WSW 18.4 mph - N/A Rain Light Rain Showers
10:55 PM 57.2 °F 53.6 °F 88% 29.86 in 5.0 mi WSW 17.3 mph - N/A Rain Light Rain Showers
11:00 PM 58 °F 54 °F 81% 29.87 in 8 mi WSW 17.9 mph - - Rain Light Rain Showers
11:25 PM 57.2 °F 53.6 °F 88% 29.86 in 6.2 mi WSW 18.4 mph - N/A Rain Light Rain Showers
11:55 PM 57.2 °F 53.6 °F 88% 29.86 in 6.2 mi SW 16.1 mph - N/A   Scattered Clouds